Tracking 31027 objects as of 19-Jul-2025
HD Live streaming from Space Station
objects crossing your sky now

HAMMER

Track HAMMER now!
10-day predictions


NORAD ID: 59148
Int'l Code: 2024-043BC
Perigee: 461.2 km
Apogee: 470.9 km
Inclination: 97.5 °
Period: 93.8 minutes
Semi major axis: 6837 km
RCS: Unknown
Launch date: March 4, 2024
Source: Spain (SPN)
Launch site: AIR FORCE WESTERN TEST RANGE (AFWTR)
Your satellite tracking list
ABS 3
Track 1 satellite(s)




NASA's NSSDC Master Catalog

Two Line Element Set (TLE):
1 59148U 24043BC  25199.81656672  .00008471  00000-0  24646-3 0  9992
2 59148  97.5122 332.6077 0007116 301.1182  58.9363 15.35667219 76411
Source of the keplerian elements: AFSPC